Time,TemperatureF,DewpointF,PressureIn,WindDirection,WindDirectionDegrees,WindSpeedMPH,WindSpeedGustMPH,Humidity,HourlyPrecipIn,Conditions,Clouds,dailyrainin,SoftwareType,DateUTC
2013-07-27 00:02:00,71.1,65.0,29.96,ENE,75,0.0,1.0,81,0.00,,CLR,0.00,VWS V14.00,2013-07-27 04:02:00,
2013-07-27 00:17:00,70.9,65.1,29.96,ENE,75,0.0,0.0,82,0.00,,CLR,0.00,VWS V14.00,2013-07-27 04:17:00,
2013-07-27 00:32:00,70.8,64.7,29.96,ENE,75,0.0,0.0,81,0.00,,CLR,0.00,VWS V14.00,2013-07-27 04:32:00,
2013-07-27 00:47:00,70.6,64.5,29.96,ENE,75,0.0,0.0,81,0.00,,CLR,0.00,VWS V14.00,2013-07-27 04:47:00,
2013-07-27 01:02:00,70.6,64.5,29.96,ENE,75,0.0,0.0,81,0.00,,SCT250,0.00,VWS V14.00,2013-07-27 05:02:00,
2013-07-27 01:17:00,70.4,64.3,29.96,ENE,75,0.0,0.0,81,0.00,,SCT250,0.00,VWS V14.00,2013-07-27 05:17:00,
2013-07-27 01:32:00,70.1,64.0,29.95,ENE,75,0.0,0.0,81,0.00,,SCT250,0.00,VWS V14.00,2013-07-27 05:32:00,
2013-07-27 01:47:00,69.9,64.2,29.95,ENE,76,0.0,1.0,82,0.00,,SCT250,0.00,VWS V14.00,2013-07-27 05:47:00,
2013-07-27 02:02:00,69.6,63.9,29.95,ENE,75,0.0,1.0,82,0.00,,FEW250,0.00,VWS V14.00,2013-07-27 06:02:00,
2013-07-27 02:17:00,69.6,63.9,29.96,ENE,75,1.0,2.0,82,0.00,,FEW250,0.00,VWS V14.00,2013-07-27 06:17:00,
2013-07-27 02:32:00,69.6,64.2,29.95,ENE,75,0.0,1.0,83,0.00,,FEW250,0.00,VWS V14.00,2013-07-27 06:32:00,
2013-07-27 02:47:00,69.4,64.4,29.95,ENE,75,0.0,0.0,84,0.00,,FEW250,0.00,VWS V14.00,2013-07-27 06:47:00,
2013-07-27 03:02:00,69.3,64.3,29.95,ENE,76,0.0,1.0,84,0.00,,FEW250,0.00,VWS V14.00,2013-07-27 07:02:00,
2013-07-27 03:17:00,69.3,64.6,29.93,ENE,76,0.0,1.0,85,0.00,,FEW250,0.00,VWS V14.00,2013-07-27 07:17:00,
2013-07-27 03:32:00,69.3,64.9,29.93,ENE,76,0.0,0.0,86,0.00,,FEW250,0.00,VWS V14.00,2013-07-27 07:32:00,
2013-07-27 03:47:00,70.4,67.0,29.93,ENE,71,1.0,3.0,89,0.00,,FEW250,0.00,VWS V14.00,2013-07-27 07:47:00,
2013-07-27 04:02:00,71.1,67.7,29.92,ENE,64,0.0,2.0,89,0.00,,BKN009,0.00,VWS V14.00,2013-07-27 08:02:00,
2013-07-27 04:17:00,70.9,67.5,29.92,ENE,64,0.0,1.0,89,0.00,,BKN009,0.00,VWS V14.00,2013-07-27 08:17:00,
2013-07-27 04:32:00,71.1,68.0,29.92,ENE,62,0.0,2.0,90,0.00,,BKN009,0.00,VWS V14.00,2013-07-27 08:32:00,
2013-07-27 04:47:00,71.1,68.0,29.92,ENE,62,0.0,1.0,90,0.00,,BKN009,0.00,VWS V14.00,2013-07-27 08:47:00,
2013-07-27 05:02:00,70.9,67.8,29.92,ENE,62,0.0,3.0,90,0.00,,BKN016,0.00,VWS V14.00,2013-07-27 09:02:00,
2013-07-27 05:17:00,70.6,67.5,29.91,ENE,62,0.0,1.0,90,0.00,,BKN016,0.00,VWS V14.00,2013-07-27 09:17:00,
2013-07-27 05:32:00,70.4,67.7,29.92,ENE,62,0.0,2.0,91,0.00,,BKN016,0.00,VWS V14.00,2013-07-27 09:32:00,
2013-07-27 05:47:00,70.4,67.7,29.92,ENE,62,0.0,1.0,91,0.00,,BKN016,0.00,VWS V14.00,2013-07-27 09:47:00,
2013-07-27 06:02:00,70.3,67.6,29.92,ENE,62,0.0,1.0,91,0.00,,FEW007,0.00,VWS V14.00,2013-07-27 10:02:00,
2013-07-27 06:17:00,70.3,67.9,29.93,ENE,62,0.0,1.0,92,0.00,,FEW007,0.00,VWS V14.00,2013-07-27 10:17:00,
2013-07-27 06:32:00,70.4,68.0,29.94,ENE,62,0.0,2.0,92,0.00,,FEW007,0.00,VWS V14.00,2013-07-27 10:32:00,
2013-07-27 06:47:00,70.6,68.2,29.94,ENE,62,1.0,2.0,92,0.00,,FEW007,0.00,VWS V14.00,2013-07-27 10:47:00,
2013-07-27 07:02:00,70.6,68.5,29.94,ENE,62,0.0,1.0,93,0.00,,BKN250,0.00,VWS V14.00,2013-07-27 11:02:00,
2013-07-27 07:17:00,70.9,68.5,29.94,ENE,62,0.0,1.0,92,0.00,,BKN250,0.00,VWS V14.00,2013-07-27 11:17:00,
2013-07-27 07:32:00,71.3,68.9,29.94,ENE,62,0.0,1.0,92,0.00,,BKN250,0.00,VWS V14.00,2013-07-27 11:32:00,
2013-07-27 07:47:00,71.5,68.7,29.95,ENE,62,0.0,1.0,91,0.00,,BKN250,0.00,VWS V14.00,2013-07-27 11:47:00,
2013-07-27 08:02:00,71.6,68.8,29.95,ENE,62,0.0,1.0,91,0.00,,BKN250,0.00,VWS V14.00,2013-07-27 12:02:00,
2013-07-27 08:17:00,72.0,68.9,29.95,ENE,62,0.0,1.0,90,0.00,,BKN250,0.00,VWS V14.00,2013-07-27 12:17:00,
2013-07-27 08:32:00,72.3,68.9,29.95,ENE,62,0.0,1.0,89,0.00,,BKN250,0.00,VWS V14.00,2013-07-27 12:32:00,
2013-07-27 08:47:00,72.8,69.0,29.95,ENE,62,0.0,0.0,88,0.00,,BKN250,0.00,VWS V14.00,2013-07-27 12:47:00,
2013-07-27 09:02:00,72.8,68.7,29.95,ENE,62,0.0,0.0,87,0.00,,,0.00,VWS V14.00,2013-07-27 13:02:00,
2013-07-27 09:17:00,73.0,68.9,29.95,ENE,62,0.0,0.0,87,0.00,,,0.00,VWS V14.00,2013-07-27 13:17:00,
2013-07-27 09:32:00,73.0,68.9,29.95,ENE,62,0.0,0.0,87,0.00,,,0.00,VWS V14.00,2013-07-27 13:32:00,
2013-07-27 09:47:00,73.3,69.2,29.95,ENE,62,0.0,0.0,87,0.00,,,0.00,VWS V14.00,2013-07-27 13:47:00,
2013-07-27 10:02:00,73.9,70.1,29.95,ENE,62,0.0,2.0,88,0.00,,OVC150,0.00,VWS V14.00,2013-07-27 14:02:00,
2013-07-27 10:17:00,74.4,69.3,29.95,ENE,62,0.0,2.0,84,0.00,,OVC150,0.00,VWS V14.00,2013-07-27 14:17:00,
2013-07-27 10:32:00,75.4,68.4,29.94,ENE,64,0.0,2.0,79,0.00,,OVC150,0.00,VWS V14.00,2013-07-27 14:32:00,
2013-07-27 10:47:00,76.1,69.8,29.94,ENE,62,0.0,1.0,81,0.00,,OVC150,0.00,VWS V14.00,2013-07-27 14:47:00,
2013-07-27 11:02:00,77.4,69.6,29.94,ENE,62,1.0,1.0,77,0.00,,OVC100,0.00,VWS V14.00,2013-07-27 15:02:00,
2013-07-27 11:17:00,77.0,68.5,29.93,ENE,61,0.0,2.0,75,0.00,,OVC100,0.00,VWS V14.00,2013-07-27 15:17:00,
2013-07-27 11:32:00,77.7,68.4,29.93,ENE,65,2.0,3.0,73,0.00,,OVC100,0.00,VWS V14.00,2013-07-27 15:32:00,
2013-07-27 11:47:00,77.4,68.5,29.93,ENE,66,0.0,4.0,74,0.00,,OVC100,0.00,VWS V14.00,2013-07-27 15:47:00,
2013-07-27 12:02:00,76.7,68.6,29.93,ENE,66,0.0,3.0,76,0.00,,OVC110,0.00,VWS V14.00,2013-07-27 16:02:00,
2013-07-27 12:17:00,77.4,68.1,29.93,ENE,66,0.0,4.0,73,0.00,,OVC110,0.00,VWS V14.00,2013-07-27 16:17:00,
2013-07-27 12:32:00,78.5,68.3,29.93,ENE,65,0.0,3.0,71,0.00,,OVC110,0.00,VWS V14.00,2013-07-27 16:32:00,
2013-07-27 12:47:00,78.3,69.7,29.92,ENE,65,0.0,1.0,75,0.00,,OVC110,0.00,VWS V14.00,2013-07-27 16:47:00,
2013-07-27 13:02:00,77.7,69.2,29.91,ENE,65,0.0,2.0,75,0.00,,OVC100,0.00,VWS V14.00,2013-07-27 17:02:00,
2013-07-27 13:17:00,77.9,68.9,29.91,ENE,65,0.0,1.0,74,0.00,,OVC100,0.00,VWS V14.00,2013-07-27 17:17:00,
2013-07-27 13:32:00,78.3,70.1,29.91,ENE,66,0.0,4.0,76,0.00,,OVC100,0.00,VWS V14.00,2013-07-27 17:32:00,
2013-07-27 13:47:00,77.9,69.3,29.90,ENE,66,0.0,1.0,75,0.00,,OVC100,0.00,VWS V14.00,2013-07-27 17:47:00,
2013-07-27 14:02:00,77.4,69.6,29.90,ENE,66,0.0,0.0,77,0.00,,OVC110,0.00,VWS V14.00,2013-07-27 18:02:00,
2013-07-27 14:17:00,76.7,69.7,29.89,ENE,66,0.0,1.0,79,0.00,,OVC110,0.00,VWS V14.00,2013-07-27 18:17:00,
2013-07-27 14:32:00,75.8,67.7,29.92,WSW,237,4.0,10.0,76,0.00,,OVC110,0.00,VWS V14.00,2013-07-27 18:32:00,
2013-07-27 14:47:00,69.8,65.4,29.92,NW,319,0.0,7.0,86,0.34,,OVC110,0.34,VWS V14.00,2013-07-27 18:47:00,
2013-07-27 15:02:00,68.8,65.4,29.92,NW,319,0.0,0.0,89,0.66,,,0.66,VWS V14.00,2013-07-27 19:02:00,
2013-07-27 15:17:00,68.6,65.9,29.91,NW,319,0.0,1.0,91,0.78,,,0.78,VWS V14.00,2013-07-27 19:17:00,
2013-07-27 15:32:00,68.6,65.9,29.91,NW,319,0.0,0.0,91,0.83,,,0.83,VWS V14.00,2013-07-27 19:32:00,
2013-07-27 15:47:00,68.6,65.9,29.91,NW,319,0.0,1.0,91,0.86,,,0.86,VWS V14.00,2013-07-27 19:47:00,
2013-07-27 16:02:00,68.6,66.5,29.90,NW,319,0.0,1.0,93,0.59,,,0.93,VWS V14.00,2013-07-27 20:02:00,
2013-07-27 16:17:00,68.6,66.5,29.88,NW,319,0.0,1.0,93,0.31,,,0.97,VWS V14.00,2013-07-27 20:17:00,
2013-07-27 16:32:00,69.1,67.0,29.88,NW,319,0.0,2.0,93,0.20,,,0.98,VWS V14.00,2013-07-27 20:32:00,
2013-07-27 16:47:00,69.4,67.3,29.88,NNE,28,0.0,4.0,93,0.16,,,0.99,VWS V14.00,2013-07-27 20:47:00,
2013-07-27 17:02:00,69.4,67.3,29.88,ENE,69,0.0,4.0,93,0.13,,,0.99,VWS V14.00,2013-07-27 21:02:00,
2013-07-27 17:17:00,69.3,67.2,29.88,ENE,69,0.0,5.0,93,0.06,,,0.99,VWS V14.00,2013-07-27 21:17:00,
2013-07-27 17:32:00,68.9,66.8,29.88,ENE,69,0.0,2.0,93,0.02,,,0.99,VWS V14.00,2013-07-27 21:32:00,
2013-07-27 17:47:00,69.1,67.0,29.88,ENE,71,0.0,2.0,93,0.01,,,0.99,VWS V14.00,2013-07-27 21:47:00,
2013-07-27 18:02:00,69.4,67.3,29.89,ENE,71,0.0,0.0,93,0.00,,BKN120,0.99,VWS V14.00,2013-07-27 22:02:00,
2013-07-27 18:17:00,69.8,67.7,29.87,ENE,71,0.0,0.0,93,0.00,,BKN120,0.99,VWS V14.00,2013-07-27 22:17:00,
2013-07-27 18:32:00,70.3,68.2,29.87,ENE,71,0.0,0.0,93,0.00,,BKN120,0.99,VWS V14.00,2013-07-27 22:32:00,
2013-07-27 18:47:00,70.8,68.7,29.87,ENE,71,0.0,0.0,93,0.00,,BKN120,0.99,VWS V14.00,2013-07-27 22:47:00,
2013-07-27 19:02:00,70.6,68.5,29.87,ENE,71,0.0,0.0,93,0.00,,BKN120,0.99,VWS V14.00,2013-07-27 23:02:00,
2013-07-27 19:17:00,70.6,68.5,29.87,ENE,71,0.0,0.0,93,0.00,,BKN120,0.99,VWS V14.00,2013-07-27 23:17:00,
2013-07-27 19:32:00,70.4,68.3,29.87,ENE,71,0.0,0.0,93,0.00,,BKN120,0.99,VWS V14.00,2013-07-27 23:32:00,
2013-07-27 19:47:00,70.4,68.3,29.87,ENE,71,0.0,1.0,93,0.00,,BKN120,0.99,VWS V14.00,2013-07-27 23:47:00,
2013-07-27 20:02:00,70.6,68.5,29.87,ENE,71,0.0,1.0,93,0.00,,OVC200,0.99,VWS V14.00,2013-07-28 00:02:00,
2013-07-27 20:17:00,70.6,68.5,29.86,ENE,71,0.0,0.0,93,0.00,,OVC200,0.99,VWS V14.00,2013-07-28 00:17:00,
2013-07-27 20:32:00,70.6,68.5,29.86,ENE,71,0.0,0.0,93,0.00,,OVC200,0.99,VWS V14.00,2013-07-28 00:32:00,
2013-07-27 20:47:00,70.4,68.3,29.87,ENE,71,0.0,0.0,93,0.00,,OVC200,0.99,VWS V14.00,2013-07-28 00:47:00,
2013-07-27 21:02:00,69.8,67.7,29.87,ENE,71,0.0,0.0,93,0.00,,OVC200,0.99,VWS V14.00,2013-07-28 01:02:00,
2013-07-27 21:17:00,69.6,67.5,29.87,ENE,71,0.0,0.0,93,0.00,,OVC200,0.99,VWS V14.00,2013-07-28 01:17:00,
2013-07-27 21:47:00,69.4,67.3,29.90,ENE,71,0.0,0.0,93,0.00,,OVC200,0.99,VWS V14.00,2013-07-28 01:47:00,
2013-07-27 22:02:00,69.6,67.5,29.89,ENE,71,0.0,0.0,93,0.00,,OVC200,0.99,VWS V14.00,2013-07-28 02:02:00,
2013-07-27 22:17:00,70.1,68.3,29.89,ENE,71,0.0,0.0,94,0.00,,OVC200,0.99,VWS V14.00,2013-07-28 02:17:00,
2013-07-27 22:32:00,70.1,68.0,29.89,ENE,71,0.0,0.0,93,0.00,,OVC200,0.99,VWS V14.00,2013-07-28 02:32:00,
2013-07-27 22:47:00,69.9,67.8,29.89,ENE,71,0.0,0.0,93,0.00,,OVC200,0.99,VWS V14.00,2013-07-28 02:47:00,
2013-07-27 23:02:00,69.9,67.8,29.88,ENE,71,0.0,0.0,93,0.00,,OVC200,0.99,VWS V14.00,2013-07-28 03:02:00,
2013-07-27 23:17:00,69.9,67.8,29.88,ENE,69,0.0,0.0,93,0.00,,OVC200,0.99,VWS V14.00,2013-07-28 03:17:00,
2013-07-27 23:32:00,69.9,68.1,29.88,ENE,71,0.0,0.0,94,0.00,,OVC200,0.99,VWS V14.00,2013-07-28 03:32:00,
2013-07-27 23:47:00,70.1,68.3,29.87,ENE,71,0.0,0.0,94,0.00,,OVC200,0.99,VWS V14.00,2013-07-28 03:47:00,